Orbital Elements at Epoch 2459000.5 (2020-May-31.0) TDB
Reference: JPL 23 (heliocentric ecliptic J2000)
Element | Value | Uncertainty (1-sigma) | Units |
e | .08509336221314927 | 2.9335e-08 | |
a | 2.232231886851836 | 6.2503e-09 | au |
q | 2.042283770360211 | 6.5607e-08 | au |
i | 4.18848609577676 | 4.4717e-06 | deg |
node | 33.85123321216265 | 4.2138e-05 | deg |
peri | 69.3451616157965 | 4.9546e-05 | deg |
M | 113.2317573193925 | 2.6134e-05 | deg |
tp | 2458617.346201849137 (2019-May-13.84620185) | 8.8112e-05 | TDB |
period | 1218.168565071693 3.34 | 5.1164e-06 1.401e-08 | d yr |
n | .2955256032064928 | 1.2412e-09 | deg/d |
Q | 2.422180003343461 | 6.7822e-09 | au |
|
| | Orbit Determination Parameters
Additional Information
|